Year,Month,Day,Hour,Minute,Value (Times are PST for temperature in C)
2010,04,09,00,00,1.30
2010,04,09,00,01,1.30
2010,04,09,00,02,1.30
2010,04,09,00,03,1.30
2010,04,09,00,04,1.30
2010,04,09,00,05,1.30
2010,04,09,00,06,1.30
2010,04,09,00,07,1.30
2010,04,09,00,08,1.30
2010,04,09,00,09,1.30
2010,04,09,00,10,1.30
2010,04,09,00,11,1.30
2010,04,09,00,12,1.30
2010,04,09,00,13,1.30
2010,04,09,00,14,1.30
2010,04,09,00,15,1.20
2010,04,09,00,16,1.20
2010,04,09,00,17,1.20
2010,04,09,00,18,1.20
2010,04,09,00,19,1.20
2010,04,09,00,20,1.20
2010,04,09,00,21,1.20
2010,04,09,00,22,1.20
2010,04,09,00,23,1.20
2010,04,09,00,24,1.20
2010,04,09,00,25,1.20
2010,04,09,00,26,1.20
2010,04,09,00,27,1.20
2010,04,09,00,28,1.20
2010,04,09,00,29,1.20
2010,04,09,00,30,1.20
2010,04,09,00,31,1.10
2010,04,09,00,32,1.10
2010,04,09,00,33,1.10
2010,04,09,00,34,1.10
2010,04,09,00,35,1.10
2010,04,09,00,36,1.10
2010,04,09,00,37,1.10
2010,04,09,00,38,1.10
2010,04,09,00,39,1.10
2010,04,09,00,40,1.10
2010,04,09,00,41,1.10
2010,04,09,00,42,1.10
2010,04,09,00,43,1.10
2010,04,09,00,44,1.10
2010,04,09,00,45,1.00
2010,04,09,00,46,1.00
2010,04,09,00,47,1.00
2010,04,09,00,48,1.00
2010,04,09,00,49,1.00
2010,04,09,00,50,1.00
2010,04,09,00,51,1.00
2010,04,09,00,52,1.00
2010,04,09,00,53,1.00
2010,04,09,00,54,1.00
2010,04,09,00,55,1.00
2010,04,09,00,56,1.00
2010,04,09,00,57,1.00
2010,04,09,00,58,0.90
2010,04,09,00,59,0.90
2010,04,09,01,00,0.90
2010,04,09,01,01,0.90
2010,04,09,01,02,0.90
2010,04,09,01,03,0.90
2010,04,09,01,04,0.90
2010,04,09,01,05,0.90
2010,04,09,01,06,0.90
2010,04,09,01,07,0.90
2010,04,09,01,08,0.90
2010,04,09,01,09,0.90
2010,04,09,01,10,0.90
2010,04,09,01,11,0.80
2010,04,09,01,12,0.80
2010,04,09,01,13,0.80
2010,04,09,01,14,0.80
2010,04,09,01,15,0.80
2010,04,09,01,16,0.80
2010,04,09,01,17,0.80
2010,04,09,01,18,0.80
2010,04,09,01,19,0.80
2010,04,09,01,20,0.80
2010,04,09,01,21,0.70
2010,04,09,01,22,0.70
2010,04,09,01,23,0.70
2010,04,09,01,24,0.70
2010,04,09,01,25,0.70
2010,04,09,01,26,0.70
2010,04,09,01,27,0.60
2010,04,09,01,28,0.60
2010,04,09,01,29,0.60
2010,04,09,01,30,0.60
2010,04,09,01,31,0.60
2010,04,09,01,32,0.60
2010,04,09,01,33,0.50
2010,04,09,01,34,0.50
2010,04,09,01,35,0.50
2010,04,09,01,36,0.40
2010,04,09,01,37,0.40
2010,04,09,01,38,0.40
2010,04,09,01,39,0.40
2010,04,09,01,40,0.40
2010,04,09,01,41,0.40
2010,04,09,01,42,0.40
2010,04,09,01,43,0.40
2010,04,09,01,44,0.30
2010,04,09,01,45,0.30
2010,04,09,01,46,0.30
2010,04,09,01,47,0.30
2010,04,09,01,48,0.30
2010,04,09,01,49,0.30
2010,04,09,01,50,0.30
2010,04,09,01,51,0.20
2010,04,09,01,52,0.20
2010,04,09,01,53,0.20
2010,04,09,01,54,0.20
2010,04,09,01,55,0.20
2010,04,09,01,56,0.20
2010,04,09,01,57,0.20
2010,04,09,01,58,0.20
2010,04,09,01,59,0.10
2010,04,09,02,00,0.10
2010,04,09,02,01,0.10
2010,04,09,02,02,0.10
2010,04,09,02,03,0.10
2010,04,09,02,04,0.10
2010,04,09,02,05,0.10
2010,04,09,02,06,0.10
2010,04,09,02,07,0.10
2010,04,09,02,08,0.10
2010,04,09,02,09,0.10
2010,04,09,02,10,0.10
2010,04,09,02,11,0.10
2010,04,09,02,12,0.10
2010,04,09,02,13,0.10
2010,04,09,02,14,0.10
2010,04,09,02,15,0.10
2010,04,09,02,16,0.10
2010,04,09,02,17,0.10
2010,04,09,02,18,0.00
2010,04,09,02,19,0.00
2010,04,09,02,20,0.00
2010,04,09,02,21,0.00
2010,04,09,02,22,-0.10
2010,04,09,02,23,-0.10
2010,04,09,02,24,-0.10
2010,04,09,02,25,-0.10
2010,04,09,02,26,-0.10
2010,04,09,02,27,-0.10
2010,04,09,02,28,-0.10
2010,04,09,02,29,-0.10
2010,04,09,02,30,-0.10
2010,04,09,02,31,-0.10
2010,04,09,02,32,-0.10
2010,04,09,02,33,-0.10
2010,04,09,02,34,-0.10
2010,04,09,02,35,-0.10
2010,04,09,02,36,-0.20
2010,04,09,02,37,-0.20
2010,04,09,02,38,-0.20
2010,04,09,02,39,-0.20
2010,04,09,02,40,-0.20
2010,04,09,02,41,-0.20
2010,04,09,02,42,-0.20
2010,04,09,02,43,-0.20
2010,04,09,02,44,-0.20
2010,04,09,02,45,-0.20
2010,04,09,02,46,-0.20
2010,04,09,02,47,-0.20
2010,04,09,02,48,-0.20
2010,04,09,02,49,-0.20
2010,04,09,02,50,-0.30
2010,04,09,02,51,-0.30
2010,04,09,02,52,-0.20
2010,04,09,02,53,-0.20
2010,04,09,02,54,-0.30
2010,04,09,02,55,-0.30
2010,04,09,02,56,-0.30
2010,04,09,02,57,-0.30
2010,04,09,02,58,-0.30
2010,04,09,02,59,-0.30
2010,04,09,03,00,-0.30
2010,04,09,03,01,-0.30
2010,04,09,03,02,-0.30
2010,04,09,03,03,-0.30
2010,04,09,03,04,-0.30
2010,04,09,03,05,-0.40
2010,04,09,03,06,-0.40
2010,04,09,03,07,-0.40
2010,04,09,03,08,-0.40
2010,04,09,03,09,-0.40
2010,04,09,03,10,-0.40
2010,04,09,03,11,-0.40
2010,04,09,03,12,-0.40
2010,04,09,03,13,-0.50
2010,04,09,03,14,-0.50
2010,04,09,03,15,-0.50
2010,04,09,03,16,-0.50
2010,04,09,03,17,-0.50
2010,04,09,03,18,-0.50
2010,04,09,03,19,-0.50
2010,04,09,03,20,-0.50
2010,04,09,03,21,-0.60
2010,04,09,03,22,-0.50
2010,04,09,03,23,-0.60
2010,04,09,03,24,-0.60
2010,04,09,03,25,-0.60
2010,04,09,03,26,-0.60
2010,04,09,03,27,-0.60
2010,04,09,03,28,-0.60
2010,04,09,03,29,-0.50
2010,04,09,03,30,-0.50
2010,04,09,03,31,-0.50
2010,04,09,03,32,-0.50
2010,04,09,03,33,-0.50
2010,04,09,03,34,-0.50
2010,04,09,03,35,-0.50
2010,04,09,03,36,-0.50
2010,04,09,03,37,-0.50
2010,04,09,03,38,-0.50
2010,04,09,03,39,-0.50
2010,04,09,03,40,-0.50
2010,04,09,03,41,-0.50
2010,04,09,03,42,-0.40
2010,04,09,03,43,-0.50
2010,04,09,03,44,-0.50
2010,04,09,03,45,-0.50
2010,04,09,03,46,-0.50
2010,04,09,03,47,-0.50
2010,04,09,03,48,-0.50
2010,04,09,03,49,-0.50
2010,04,09,03,50,-0.60
2010,04,09,03,51,-0.60
2010,04,09,03,52,-0.60
2010,04,09,03,53,-0.60
2010,04,09,03,54,-0.60
2010,04,09,03,55,-0.60
2010,04,09,03,56,-0.60
2010,04,09,03,57,-0.60
2010,04,09,03,58,-0.60
2010,04,09,03,59,-0.60
2010,04,09,04,00,-0.60
2010,04,09,04,01,-0.60
2010,04,09,04,02,-0.60
2010,04,09,04,03,-0.70
2010,04,09,04,04,-0.70
2010,04,09,04,05,-0.70
2010,04,09,04,06,-0.70
2010,04,09,04,07,-0.70
2010,04,09,04,08,-0.70
2010,04,09,04,09,-0.70
2010,04,09,04,10,-0.70
2010,04,09,04,11,-0.70
2010,04,09,04,12,-0.70
2010,04,09,04,13,-0.80
2010,04,09,04,14,-0.80
2010,04,09,04,15,-0.80
2010,04,09,04,16,-0.80
2010,04,09,04,17,-0.80
2010,04,09,04,18,-0.80
2010,04,09,04,19,-0.80
2010,04,09,04,20,-0.80
2010,04,09,04,21,-0.80
2010,04,09,04,22,-0.80
2010,04,09,04,23,-0.80
2010,04,09,04,24,-0.80
2010,04,09,04,25,-0.80
2010,04,09,04,26,-0.80
2010,04,09,04,27,-0.80
2010,04,09,04,28,-0.80
2010,04,09,04,29,-0.80
2010,04,09,04,30,-0.80
2010,04,09,04,31,-0.90
2010,04,09,04,32,-0.90
2010,04,09,04,33,-0.90
2010,04,09,04,34,-0.90
2010,04,09,04,35,-0.90
2010,04,09,04,36,-0.90
2010,04,09,04,37,-0.90
2010,04,09,04,38,-0.90
2010,04,09,04,39,-1.00
2010,04,09,04,40,-1.00
2010,04,09,04,41,-1.00
2010,04,09,04,42,-1.00
2010,04,09,04,43,-1.00
2010,04,09,04,44,-1.00
2010,04,09,04,45,-1.00
2010,04,09,04,46,-1.00
2010,04,09,04,47,-1.00
2010,04,09,04,48,-1.10
2010,04,09,04,49,-1.10
2010,04,09,04,50,-1.10
2010,04,09,04,51,-1.10
2010,04,09,04,52,-1.10
2010,04,09,04,53,-1.10
2010,04,09,04,54,-1.10
2010,04,09,04,55,-1.10
2010,04,09,04,56,-1.10
2010,04,09,04,57,-1.10
2010,04,09,04,58,-1.10
2010,04,09,04,59,-1.10
2010,04,09,05,00,-1.10
2010,04,09,05,01,-1.10
2010,04,09,05,02,-1.10
2010,04,09,05,03,-1.10
2010,04,09,05,04,-1.10
2010,04,09,05,05,-1.10
2010,04,09,05,06,-1.00
2010,04,09,05,07,-1.00
2010,04,09,05,08,-1.00
2010,04,09,05,09,-1.00
2010,04,09,05,10,-1.00
2010,04,09,05,11,-1.00
2010,04,09,05,12,-1.00
2010,04,09,05,13,-1.00
2010,04,09,05,14,-1.00
2010,04,09,05,15,-1.00
2010,04,09,05,16,-1.00
2010,04,09,05,17,-1.00
2010,04,09,05,18,-1.00
2010,04,09,05,19,-1.00
2010,04,09,05,20,-1.10
2010,04,09,05,21,-1.10
2010,04,09,05,22,-1.10
2010,04,09,05,23,-1.10
2010,04,09,05,24,-1.10
2010,04,09,05,25,-1.10
2010,04,09,05,26,-1.10
2010,04,09,05,27,-1.10
2010,04,09,05,28,-1.10
2010,04,09,05,29,-1.10
2010,04,09,05,30,-1.10
2010,04,09,05,31,-1.10
2010,04,09,05,32,-1.10
2010,04,09,05,33,-1.10
2010,04,09,05,34,-1.10
2010,04,09,05,35,-1.10
2010,04,09,05,36,-1.10
2010,04,09,05,37,-1.10
2010,04,09,05,38,-1.10
2010,04,09,05,39,-1.10
2010,04,09,05,40,-1.10
2010,04,09,05,41,-1.10
2010,04,09,05,42,-1.10
2010,04,09,05,43,-1.10
2010,04,09,05,44,-1.10
2010,04,09,05,45,-1.10
2010,04,09,05,46,-1.10
2010,04,09,05,47,-1.10
2010,04,09,05,48,-1.10
2010,04,09,05,49,-1.10
2010,04,09,05,50,-1.10
2010,04,09,05,51,-1.10
2010,04,09,05,52,-1.10
2010,04,09,05,53,-1.10
2010,04,09,05,54,-1.10
2010,04,09,05,55,-1.10
2010,04,09,05,56,-1.10
2010,04,09,05,57,-1.10
2010,04,09,05,58,-1.10
2010,04,09,05,59,-1.10
2010,04,09,06,00,-1.10
2010,04,09,06,01,-1.10
2010,04,09,06,02,-1.10
2010,04,09,06,03,-1.10
2010,04,09,06,04,-1.10
2010,04,09,06,05,-1.10
2010,04,09,06,06,-1.10
2010,04,09,06,07,-1.10
2010,04,09,06,08,-1.10
2010,04,09,06,09,-1.10
2010,04,09,06,10,-1.10
2010,04,09,06,11,-1.10
2010,04,09,06,12,-1.10
2010,04,09,06,13,-1.10
2010,04,09,06,14,-1.10
2010,04,09,06,15,-1.10
2010,04,09,06,16,-1.10
2010,04,09,06,17,-1.10
2010,04,09,06,18,-1.10
2010,04,09,06,19,-1.10
2010,04,09,06,20,-1.10
2010,04,09,06,21,-1.10
2010,04,09,06,22,-1.10
2010,04,09,06,23,-1.10
2010,04,09,06,24,-1.10
2010,04,09,06,25,-1.10
2010,04,09,06,26,-1.10
2010,04,09,06,27,-1.10
2010,04,09,06,28,-1.10
2010,04,09,06,29,-1.10
2010,04,09,06,30,-1.10
2010,04,09,06,31,-1.10
2010,04,09,06,32,-1.10
2010,04,09,06,33,-1.10
2010,04,09,06,34,-1.10
2010,04,09,06,35,-1.10
2010,04,09,06,36,-1.10
2010,04,09,06,37,-1.20
2010,04,09,06,38,-1.20
2010,04,09,06,39,-1.20
2010,04,09,06,40,-1.20
2010,04,09,06,41,-1.20
2010,04,09,06,42,-1.20
2010,04,09,06,43,-1.20
2010,04,09,06,44,-1.20
2010,04,09,06,45,-1.20
2010,04,09,06,46,-1.20
2010,04,09,06,47,-1.20
2010,04,09,06,48,-1.20
2010,04,09,06,49,-1.30
2010,04,09,06,50,-1.30
2010,04,09,06,51,-1.30
2010,04,09,06,52,-1.30
2010,04,09,06,53,-1.30
2010,04,09,06,54,-1.30
2010,04,09,06,55,-1.30
2010,04,09,06,56,-1.30
2010,04,09,06,57,-1.30
2010,04,09,06,58,-1.30
2010,04,09,06,59,-1.30
2010,04,09,07,00,-1.30
2010,04,09,07,01,-1.30
2010,04,09,07,02,-1.30
2010,04,09,07,03,-1.40
2010,04,09,07,04,-1.30
2010,04,09,07,05,-1.30
2010,04,09,07,06,-1.30
2010,04,09,07,07,-1.30
2010,04,09,07,08,-1.30
2010,04,09,07,09,-1.30
2010,04,09,07,10,-1.30
2010,04,09,07,11,-1.30
2010,04,09,07,12,-1.30
2010,04,09,07,13,-1.30
2010,04,09,07,14,-1.30
2010,04,09,07,15,-1.30
2010,04,09,07,16,-1.30
2010,04,09,07,17,-1.20
2010,04,09,07,18,-1.20
2010,04,09,07,19,-1.20
2010,04,09,07,20,-1.20
2010,04,09,07,21,-1.20
2010,04,09,07,22,-1.20
2010,04,09,07,23,-1.20
2010,04,09,07,24,-1.20
2010,04,09,07,25,-1.20
2010,04,09,07,26,-1.20
2010,04,09,07,27,-1.10
2010,04,09,07,28,-1.10
2010,04,09,07,29,-1.10
2010,04,09,07,30,-1.10
2010,04,09,07,31,-1.10
2010,04,09,07,32,-1.10
2010,04,09,07,33,-1.10
2010,04,09,07,34,-1.10
2010,04,09,07,35,-1.00
2010,04,09,07,36,-1.00
2010,04,09,07,37,-1.00
2010,04,09,07,38,-1.00
2010,04,09,07,39,-1.00
2010,04,09,07,40,-1.00
2010,04,09,07,41,-1.00
2010,04,09,07,42,-1.00
2010,04,09,07,43,-1.00
2010,04,09,07,44,-1.00
2010,04,09,07,45,-1.00
2010,04,09,07,46,-1.00
2010,04,09,07,47,-1.00
2010,04,09,07,48,-0.90
2010,04,09,07,49,-1.00
2010,04,09,07,50,-0.90
2010,04,09,07,51,-0.90
2010,04,09,07,52,-0.90
2010,04,09,07,53,-0.90
2010,04,09,07,54,-0.90
2010,04,09,07,55,-0.90
2010,04,09,07,56,-0.90
2010,04,09,07,57,-0.90
2010,04,09,07,58,-0.90
2010,04,09,07,59,-0.90
2010,04,09,08,00,-0.90
2010,04,09,08,01,-0.90
2010,04,09,08,02,-0.80
2010,04,09,08,03,-0.80
2010,04,09,08,04,-0.80
2010,04,09,08,05,-0.80
2010,04,09,08,06,-0.80
2010,04,09,08,07,-0.80
2010,04,09,08,08,-0.80
2010,04,09,08,09,-0.80
2010,04,09,08,10,-0.70
2010,04,09,08,11,-0.70
2010,04,09,08,12,-0.70
2010,04,09,08,13,-0.70
2010,04,09,08,14,-0.70
2010,04,09,08,15,-0.70
2010,04,09,08,16,-0.60
2010,04,09,08,17,-0.60
2010,04,09,08,18,-0.60
2010,04,09,08,19,-0.70
2010,04,09,08,20,-0.60
2010,04,09,08,21,-0.60
2010,04,09,08,22,-0.60
2010,04,09,08,23,-0.60
2010,04,09,08,24,-0.60
2010,04,09,08,25,-0.60
2010,04,09,08,26,-0.60
2010,04,09,08,27,-0.60
2010,04,09,08,28,-0.60
2010,04,09,08,29,-0.60
2010,04,09,08,30,-0.60
2010,04,09,08,31,-0.60
2010,04,09,08,32,-0.60
2010,04,09,08,33,-0.60
2010,04,09,08,34,-0.60
2010,04,09,08,35,-0.60
2010,04,09,08,36,-0.60
2010,04,09,08,37,-0.60
2010,04,09,08,38,-0.60
2010,04,09,08,39,-0.60
2010,04,09,08,40,-0.50
2010,04,09,08,41,-0.50
2010,04,09,08,42,-0.50
2010,04,09,08,43,-0.50
2010,04,09,08,44,-0.50
2010,04,09,08,45,-0.40
2010,04,09,08,46,-0.40
2010,04,09,08,47,-0.40
2010,04,09,08,48,-0.40
2010,04,09,08,49,-0.40
2010,04,09,08,50,-0.40
2010,04,09,08,51,-0.40
2010,04,09,08,52,-0.30
2010,04,09,08,53,-0.30
2010,04,09,08,54,-0.30
2010,04,09,08,55,-0.30
2010,04,09,08,56,-0.40
2010,04,09,08,57,-0.30
2010,04,09,08,58,-0.30
2010,04,09,08,59,-0.30
2010,04,09,09,00,-0.30
2010,04,09,09,01,-0.30
2010,04,09,09,02,-0.30
2010,04,09,09,03,-0.20
2010,04,09,09,04,-0.20
2010,04,09,09,05,-0.20
2010,04,09,09,06,-0.20
2010,04,09,09,07,-0.10
2010,04,09,09,08,-0.10
2010,04,09,09,09,-0.10
2010,04,09,09,10,-0.10
2010,04,09,09,11,-0.10
2010,04,09,09,12,-0.10
2010,04,09,09,13,-0.10
2010,04,09,09,14,-0.10
2010,04,09,09,15,-0.10
2010,04,09,09,16,-0.10
2010,04,09,09,17,-0.10
2010,04,09,09,18,-0.10
2010,04,09,09,19,-0.10
2010,04,09,09,20,-0.10
2010,04,09,09,21,-0.10
2010,04,09,09,22,-0.10
2010,04,09,09,23,-0.10
2010,04,09,09,24,-0.10
2010,04,09,09,25,0.00
2010,04,09,09,26,0.00
2010,04,09,09,27,0.10
2010,04,09,09,28,0.10
2010,04,09,09,29,0.10
2010,04,09,09,30,0.10
2010,04,09,09,31,0.10
2010,04,09,09,32,0.10
2010,04,09,09,33,0.10
2010,04,09,09,34,0.00
2010,04,09,09,35,0.00
2010,04,09,09,36,0.00
2010,04,09,09,37,0.00
2010,04,09,09,38,0.00
2010,04,09,09,39,-0.10
2010,04,09,09,40,-0.10
2010,04,09,09,41,-0.10
2010,04,09,09,42,-0.10
2010,04,09,09,43,-0.10
2010,04,09,09,44,-0.10
2010,04,09,09,45,-0.10
2010,04,09,09,46,-0.10
2010,04,09,09,47,-0.10
2010,04,09,09,48,-0.10
2010,04,09,09,49,-0.10
2010,04,09,09,50,-0.10
2010,04,09,09,51,-0.20
2010,04,09,09,52,-0.20
2010,04,09,09,53,-0.20
2010,04,09,09,54,-0.20
2010,04,09,09,55,-0.10
2010,04,09,09,56,-0.10
2010,04,09,09,57,-0.10
2010,04,09,09,58,-0.10
2010,04,09,09,59,-0.10
2010,04,09,10,00,-0.10
2010,04,09,10,01,-0.10
2010,04,09,10,02,-0.10
2010,04,09,10,03,0.00
2010,04,09,10,04,0.00
2010,04,09,10,05,0.10
2010,04,09,10,06,0.10
2010,04,09,10,07,0.10
2010,04,09,10,08,0.20
2010,04,09,10,09,0.20
2010,04,09,10,10,0.20
2010,04,09,10,11,0.20
2010,04,09,10,12,0.20
2010,04,09,10,13,0.20
2010,04,09,10,14,0.20
2010,04,09,10,15,0.10
2010,04,09,10,16,0.10
2010,04,09,10,17,0.10
2010,04,09,10,18,0.10
2010,04,09,10,19,0.10
2010,04,09,10,20,0.10
2010,04,09,10,21,0.10
2010,04,09,10,22,0.10
2010,04,09,10,23,0.10
2010,04,09,10,24,0.10
2010,04,09,10,25,0.20
2010,04,09,10,26,0.20
2010,04,09,10,27,0.20
2010,04,09,10,28,0.20
2010,04,09,10,29,0.20
2010,04,09,10,30,0.20
2010,04,09,10,31,0.20
2010,04,09,10,32,0.20
2010,04,09,10,33,0.20
2010,04,09,10,34,0.30
2010,04,09,10,35,0.30
2010,04,09,10,36,0.30
2010,04,09,10,37,0.30
2010,04,09,10,38,0.40
2010,04,09,10,39,0.40
2010,04,09,10,40,0.50
2010,04,09,10,41,0.50
2010,04,09,10,42,0.50
2010,04,09,10,43,0.60
2010,04,09,10,44,0.60
2010,04,09,10,45,0.60
2010,04,09,10,46,0.70
2010,04,09,10,47,0.70
2010,04,09,10,48,0.80
2010,04,09,10,49,0.80
2010,04,09,10,50,0.80
2010,04,09,10,51,0.80
2010,04,09,10,52,0.80
2010,04,09,10,53,0.80
2010,04,09,10,54,0.80
2010,04,09,10,55,0.80
2010,04,09,10,56,0.80
2010,04,09,10,57,0.90
2010,04,09,10,58,0.90
2010,04,09,10,59,0.90
2010,04,09,11,00,0.90
2010,04,09,11,01,0.90
2010,04,09,11,02,0.90
2010,04,09,11,03,0.90
2010,04,09,11,04,0.80
2010,04,09,11,05,0.80
2010,04,09,11,06,0.90
2010,04,09,11,07,0.90
2010,04,09,11,08,0.90
2010,04,09,11,09,0.90
2010,04,09,11,10,0.90
2010,04,09,11,11,1.00
2010,04,09,11,12,1.00
2010,04,09,11,13,1.10
2010,04,09,11,14,1.10
2010,04,09,11,15,1.10
2010,04,09,11,16,1.20
2010,04,09,11,17,1.30
2010,04,09,11,18,1.30
2010,04,09,11,19,1.30
2010,04,09,11,20,1.30
2010,04,09,11,21,1.30
2010,04,09,11,22,1.40
2010,04,09,11,23,1.60
2010,04,09,11,24,1.70
2010,04,09,11,25,1.70
2010,04,09,11,26,1.80
2010,04,09,11,27,1.80
2010,04,09,11,28,1.80
2010,04,09,11,29,1.90
2010,04,09,11,30,1.90
2010,04,09,11,31,1.90
2010,04,09,11,32,1.90
2010,04,09,11,33,2.00
2010,04,09,11,34,2.00
2010,04,09,11,35,2.10
2010,04,09,11,36,2.10
2010,04,09,11,37,2.20
2010,04,09,11,38,2.20
2010,04,09,11,39,2.30
2010,04,09,11,40,2.40
2010,04,09,11,41,2.40
2010,04,09,11,42,2.50
2010,04,09,11,43,2.50
2010,04,09,11,44,2.40
2010,04,09,11,45,2.40
2010,04,09,11,46,2.50
2010,04,09,11,47,2.50
2010,04,09,11,48,2.60
2010,04,09,11,49,2.60
2010,04,09,11,50,2.70
2010,04,09,11,51,2.70
2010,04,09,11,52,2.70
2010,04,09,11,53,2.80
2010,04,09,11,54,2.80
2010,04,09,11,55,2.80
2010,04,09,11,56,2.90
2010,04,09,11,57,3.00
2010,04,09,11,58,3.10
2010,04,09,11,59,3.20
2010,04,09,12,00,3.20
2010,04,09,12,01,3.30
2010,04,09,12,02,3.40
2010,04,09,12,03,3.50
2010,04,09,12,04,3.60
2010,04,09,12,05,3.70
2010,04,09,12,06,3.80
2010,04,09,12,07,3.90
2010,04,09,12,08,3.90
2010,04,09,12,09,4.00
2010,04,09,12,13,4.10
2010,04,09,12,14,4.10
2010,04,09,12,15,4.10
2010,04,09,12,16,4.10
2010,04,09,12,17,4.10
2010,04,09,12,18,4.10
2010,04,09,12,19,4.10
2010,04,09,12,20,4.20
2010,04,09,12,21,4.20
2010,04,09,12,22,4.20
2010,04,09,12,23,4.30
2010,04,09,12,24,4.30
2010,04,09,12,25,4.30
2010,04,09,12,26,4.40
2010,04,09,12,27,4.40
2010,04,09,12,28,4.40
2010,04,09,12,29,4.40
2010,04,09,12,30,4.40
2010,04,09,12,31,4.40
2010,04,09,12,32,4.50
2010,04,09,12,33,4.60
2010,04,09,12,34,4.60
2010,04,09,12,35,4.70
2010,04,09,12,36,4.70
2010,04,09,12,37,4.80
2010,04,09,12,38,4.80
2010,04,09,12,39,4.90
2010,04,09,12,40,5.00
2010,04,09,12,41,5.10
2010,04,09,12,42,5.20
2010,04,09,12,43,5.20
2010,04,09,12,44,5.30
2010,04,09,12,45,5.40
2010,04,09,12,46,5.40
2010,04,09,12,47,5.50
2010,04,09,12,48,5.60
2010,04,09,12,49,5.60
2010,04,09,12,50,5.60
2010,04,09,12,51,5.60
2010,04,09,12,52,5.70
2010,04,09,12,53,5.70
2010,04,09,12,54,5.70
2010,04,09,12,55,5.80
2010,04,09,12,56,5.80
2010,04,09,12,57,5.90
2010,04,09,12,58,5.90
2010,04,09,12,59,5.90
2010,04,09,13,00,6.00
2010,04,09,13,01,6.10
2010,04,09,13,02,6.20
2010,04,09,13,03,6.20
2010,04,09,13,04,6.20
2010,04,09,13,05,6.30
2010,04,09,13,06,6.30
2010,04,09,13,07,6.30
2010,04,09,13,08,6.30
2010,04,09,13,09,6.40
2010,04,09,13,10,6.50
2010,04,09,13,11,6.50
2010,04,09,13,12,6.60
2010,04,09,13,13,6.60
2010,04,09,13,14,6.70
2010,04,09,13,15,6.70
2010,04,09,13,16,6.70
2010,04,09,13,17,6.60
2010,04,09,13,18,6.60
2010,04,09,13,19,6.60
2010,04,09,13,20,6.60
2010,04,09,13,21,6.60
2010,04,09,13,22,6.60
2010,04,09,13,23,6.60
2010,04,09,13,24,6.60
2010,04,09,13,25,6.50
2010,04,09,13,26,6.50
2010,04,09,13,27,6.50
2010,04,09,13,28,6.60
2010,04,09,13,29,6.60
2010,04,09,13,30,6.70
2010,04,09,13,31,6.70
2010,04,09,13,32,6.70
2010,04,09,13,33,6.80
2010,04,09,13,34,6.80
2010,04,09,13,35,6.90
2010,04,09,13,36,6.90
2010,04,09,13,37,6.90
2010,04,09,13,38,7.00
2010,04,09,13,39,7.00
2010,04,09,13,40,7.10
2010,04,09,13,41,7.10
2010,04,09,13,42,7.20
2010,04,09,13,43,7.20
2010,04,09,13,44,7.20
2010,04,09,13,45,7.20
2010,04,09,13,46,7.30
2010,04,09,13,47,7.30
2010,04,09,13,48,7.30
2010,04,09,13,49,7.30
2010,04,09,13,50,7.40
2010,04,09,13,51,7.40
2010,04,09,13,52,7.50
2010,04,09,13,53,7.50
2010,04,09,13,54,7.60
2010,04,09,13,55,7.70
2010,04,09,13,56,7.70
2010,04,09,13,57,7.70
2010,04,09,13,58,7.70
2010,04,09,14,02,7.80
2010,04,09,18,15,7.10
2010,04,09,18,16,7.10
2010,04,09,18,17,7.10
2010,04,09,18,18,7.10
2010,04,09,18,19,7.10
2010,04,09,18,20,7.10
2010,04,09,18,21,7.10
2010,04,09,18,22,7.00
2010,04,09,18,23,7.00
2010,04,09,18,24,7.10
2010,04,09,18,25,7.10
2010,04,09,18,26,7.10
2010,04,09,18,27,7.10
2010,04,09,18,28,7.10
2010,04,09,18,29,7.00
2010,04,09,18,30,6.90
2010,04,09,18,31,6.90
2010,04,09,18,32,6.90
2010,04,09,18,33,6.90
2010,04,09,18,34,6.90
2010,04,09,18,35,6.80
2010,04,09,18,36,6.80
2010,04,09,18,37,6.70
2010,04,09,18,38,6.70
2010,04,09,18,39,6.70
2010,04,09,18,40,6.60
2010,04,09,18,41,6.60
2010,04,09,18,42,6.60
2010,04,09,18,43,6.50
2010,04,09,18,44,6.50
2010,04,09,18,45,6.50
2010,04,09,18,46,6.50
2010,04,09,18,47,6.40
2010,04,09,18,48,6.40
2010,04,09,18,49,6.40
2010,04,09,18,50,6.40
2010,04,09,18,51,6.40
2010,04,09,18,52,6.40
2010,04,09,18,53,6.40
2010,04,09,18,54,6.50
2010,04,09,18,55,6.50
2010,04,09,18,56,6.50
2010,04,09,18,57,6.50
2010,04,09,18,58,6.50
2010,04,09,18,59,6.50
2010,04,09,19,00,6.50
2010,04,09,19,01,6.60
2010,04,09,19,02,6.60
2010,04,09,19,03,6.60
2010,04,09,19,04,6.60
2010,04,09,19,05,6.60
2010,04,09,19,06,6.70
2010,04,09,19,07,6.70
2010,04,09,19,08,6.70
2010,04,09,19,09,6.70
2010,04,09,19,10,6.70
2010,04,09,19,11,6.70
2010,04,09,19,12,6.70
2010,04,09,19,13,6.70
2010,04,09,19,14,6.70
2010,04,09,19,15,6.70
2010,04,09,19,16,6.70
2010,04,09,19,17,6.70
2010,04,09,19,18,6.70
2010,04,09,19,19,6.60
2010,04,09,19,20,6.60
2010,04,09,19,21,6.60
2010,04,09,19,22,6.60
2010,04,09,19,23,6.60
2010,04,09,19,24,6.60
2010,04,09,19,25,6.50
2010,04,09,19,26,6.50
2010,04,09,19,27,6.50
2010,04,09,19,28,6.50
2010,04,09,19,29,6.50
2010,04,09,19,30,6.40
2010,04,09,19,31,6.40
2010,04,09,19,32,6.40
2010,04,09,19,33,6.40
2010,04,09,19,34,6.40
2010,04,09,19,35,6.30
2010,04,09,19,36,6.30
2010,04,09,19,37,6.30
2010,04,09,19,38,6.30
2010,04,09,19,39,6.30
2010,04,09,19,40,6.30
2010,04,09,19,41,6.30
2010,04,09,19,42,6.30
2010,04,09,19,43,6.30
2010,04,09,19,44,6.30
2010,04,09,19,45,6.30
2010,04,09,19,46,6.30
2010,04,09,19,47,6.20
2010,04,09,19,48,6.20
2010,04,09,19,49,6.20
2010,04,09,19,50,6.20
2010,04,09,19,51,6.20
2010,04,09,19,52,6.20
2010,04,09,19,53,6.20
2010,04,09,19,54,6.20
2010,04,09,19,55,6.20
2010,04,09,19,56,6.20
2010,04,09,19,57,6.20
2010,04,09,19,58,6.20
2010,04,09,19,59,6.20
2010,04,09,20,00,6.20
2010,04,09,20,01,6.10
2010,04,09,20,02,6.10
2010,04,09,20,03,6.10
2010,04,09,20,04,6.10
2010,04,09,20,05,6.10
2010,04,09,20,06,6.10
2010,04,09,20,07,6.10
2010,04,09,20,08,6.10
2010,04,09,20,09,6.10
2010,04,09,20,10,6.10
2010,04,09,20,11,6.00
2010,04,09,20,12,5.90
2010,04,09,20,13,5.90
2010,04,09,20,14,5.80
2010,04,09,20,15,5.80
2010,04,09,20,16,5.70
2010,04,09,20,17,5.70
2010,04,09,20,18,5.60
2010,04,09,20,19,5.60
2010,04,09,20,20,5.50
2010,04,09,20,21,5.40
2010,04,09,20,22,5.30
2010,04,09,20,23,5.30
2010,04,09,20,24,5.20
2010,04,09,20,25,5.20
2010,04,09,20,26,5.20
2010,04,09,20,27,5.10
2010,04,09,20,28,5.10
2010,04,09,20,29,5.10
2010,04,09,20,30,5.00
2010,04,09,20,31,5.00
2010,04,09,20,32,4.90
2010,04,09,20,33,4.90
2010,04,09,20,34,4.90
2010,04,09,20,35,4.80
2010,04,09,20,36,4.80
2010,04,09,20,37,4.80
2010,04,09,20,38,4.70
2010,04,09,20,39,4.70
2010,04,09,20,40,4.60
2010,04,09,20,41,4.60
2010,04,09,20,42,4.50
2010,04,09,20,43,4.50
2010,04,09,20,44,4.40
2010,04,09,20,45,4.40
2010,04,09,20,46,4.30
2010,04,09,20,47,4.30
2010,04,09,20,48,4.30
2010,04,09,20,49,4.20
2010,04,09,20,50,4.20
2010,04,09,20,51,4.10
2010,04,09,20,52,4.10
2010,04,09,20,53,4.10
2010,04,09,20,54,4.00
2010,04,09,20,55,3.90
2010,04,09,20,56,3.90
2010,04,09,20,57,3.90
2010,04,09,20,58,3.80
2010,04,09,20,59,3.80
2010,04,09,21,00,3.70
2010,04,09,21,01,3.70
2010,04,09,21,02,3.70
2010,04,09,21,03,3.70
2010,04,09,21,04,3.60
2010,04,09,21,05,3.60
2010,04,09,21,06,3.60
2010,04,09,21,07,3.50
2010,04,09,21,08,3.50
2010,04,09,21,09,3.40
2010,04,09,21,10,3.40
2010,04,09,21,11,3.40
2010,04,09,21,12,3.40
2010,04,09,21,13,3.30
2010,04,09,21,14,3.30
2010,04,09,21,15,3.30
2010,04,09,21,16,3.30
2010,04,09,21,17,3.30
2010,04,09,21,18,3.30
2010,04,09,21,19,3.20
2010,04,09,21,20,3.20
2010,04,09,21,21,3.20
2010,04,09,21,22,3.20
2010,04,09,21,23,3.20
2010,04,09,21,24,3.20
2010,04,09,21,25,3.20
2010,04,09,21,26,3.20
2010,04,09,21,27,3.20
2010,04,09,21,28,3.20
2010,04,09,21,29,3.10
2010,04,09,21,30,3.10
2010,04,09,21,31,3.10
2010,04,09,21,32,3.10
2010,04,09,21,33,3.10
2010,04,09,21,34,3.10
2010,04,09,21,35,3.10
2010,04,09,21,36,3.10
2010,04,09,21,37,3.00
2010,04,09,21,38,3.00
2010,04,09,21,39,3.00
2010,04,09,21,40,3.00
2010,04,09,21,41,3.00
2010,04,09,21,42,3.00
2010,04,09,21,43,2.90
2010,04,09,21,44,2.90
2010,04,09,21,45,2.90
2010,04,09,21,46,2.90
2010,04,09,21,47,2.90
2010,04,09,21,48,2.90
2010,04,09,21,49,2.90
2010,04,09,21,50,2.90
2010,04,09,21,51,2.80
2010,04,09,21,52,2.80
2010,04,09,21,53,2.80
2010,04,09,21,54,2.80
2010,04,09,21,55,2.80
2010,04,09,21,56,2.80
2010,04,09,21,57,2.80
2010,04,09,21,58,2.80
2010,04,09,21,59,2.80
2010,04,09,22,00,2.80
2010,04,09,22,01,2.80
2010,04,09,22,02,2.70
2010,04,09,22,03,2.70
2010,04,09,22,04,2.70